{"data":{"norad_id":66733,"intl_designator":"2025-276BV","name":"FLOCK 4H-30","alt_names":[],"object_type":"PAYLOAD","status":"ACTIVE","operator":null,"country":"US","launch_date":"2025-11-28","launch_site_code":"AFWTR","launch_vehicle":null,"mission":null,"orbit_class":"UNKNOWN","rcs_meters":null,"size_class":null,"mass_kg":null,"dimensions":null,"purposes":["earth_obs"],"wikipedia_slug":null,"has_3d_model":false,"image_url":null,"decayed_at":null,"tle_current":{"epoch":"2026-09-19T11:11:57.873120Z","epoch_age_seconds":107506,"freshness":"FRESH","line1":"1 66733U 25276BV  26262.46664205  .00004584  00000+0  21049-3 0  9997","line2":"2 66733  97.4153 334.5595 0005302  56.4296 303.7445 15.20886676 44746","mean_motion":15.20886676,"eccentricity":0.0005302,"inclination_deg":97.4153,"raan_deg":334.5595,"arg_perigee_deg":56.4296,"mean_anomaly_deg":303.7445,"bstar":0.00021049,"rev_number":4474,"period_min":94.681610584377,"perigee_km":499.516317673,"apogee_km":506.81325008463,"semimajor_km":6881.3017838788,"source":"CELESTRAK","updated_at":"2026-09-20T09:00:34.753148Z"}}}